sat.trackr.live / text

‹ back to catalog

ZHUQUE-2E DEB

NORAD 69635 · 2026-128K

DEBRIS UNKNOWN UNKNOWN

§ Identity

Operator
Country
PRC
Launch date
2026-06-09
Launch site
JSC
Launch vehicle
Mass (kg)
RCS (m²)

External: N2YO · Heavens-Above · Gunter

§ Orbital elements

Epoch: 2026-07-01T14:07:42.568032Z

Period
89.11 min
Inclination
54.5278°
Eccentricity
0.0036410
Mean motion
16.15961564 rev/d
Perigee alt
206.5 km
Apogee alt
254.6 km
Semi-major
6,608.7 km
B*
4.6833e-3
RAAN
233.2629°
Arg perigee
32.0330°
Mean anomaly
328.2929°
Rev number
303

§ Raw data

ZHUQUE-2E DEB1 69635U 26128K   26182.58868713  .07777062  11762-4  46833-2 0  99962 69635  54.5278 233.2629 0036410  32.0330 328.2929 16.15961564  3039

JSON: /api/v1/satellites/69635 · /tle

For live sub-satellite position, see the globe view (requires WebGL).

§ Visibility from observer

Set your observer location to see the next 7 days of passes ≥ 10°. The values pass through the URL so the page stays shareable.

No JS? Fill the form by hand. The geolocation button needs JavaScript.